Regional Weather Roundup
Issued by NWS Nashville, TN

Home | Current Version | Previous Version | Text Only | Print | Product List | Glossary On
Versions: 1 2 3 4 5 6 7 8 9 10 11 12 13 14 15 16 17 18 19 20 21 22 23 24 25 26 27 28 29
000
ASUS44 KOHX 040010
RWROHX
MIDDLE TENNESSEE HOURLY WEATHER ROUNDUP
NATIONAL WEATHER SERVICE NASHVILLE TN
700 PM CDT TUE MAY 03 2016

NOTE: "FAIR" INDICATES FEW OR NO CLOUDS BELOW 12,000 FEET WITH
NO SIGNIFICANT WEATHER AND/OR OBSTRUCTIONS TO VISIBILITY.

* THESE REPORTS ARE NOT UNDER NWS QUALITY CONTROL AND MAY NOT
  REPORT WEATHER SUCH AS PRECIPITATION AND FOG.


TNZ005>011-023>034-057-059-062>066-078-080-040100
...NORTHERN MIDDLE TENNESSEE...

CITY           SKY/WX    TMP DP  RH WIND       PRES   REMARKS
CLARKSVILLE    CLOUDY    60  46  59 W7        29.93S
CROSSVILLE     CLOUDY    60  46  59 NW8       29.91S
NASHVILLE      MOCLDY    62  43  49 N10       29.93S
SMYRNA         CLOUDY    62  46  55 NW12      29.93S
SPARTA         CLOUDY    61  50  67 N3        29.90S
$$
TNZ056-058-060-061-075>077-079-093>097-040100
...SOUTHERN MIDDLE TENNESSEE...

CITY           SKY/WX    TMP DP  RH WIND       PRES   REMARKS
COLUMBIA       CLOUDY    61  52  72 NW3       29.92R
FAYETTEVILLE   PTCLDY    63  48  59 N8G15     29.90S
MCMINNVILLE    CLOUDY    61  48  63 N7        29.91S
SHELBYVILLE    CLOUDY    63  50  63 N10       29.92S
TULLAHOMA      MOCLDY    61  48  63 N7        29.92S
WINCHESTER     CLOUDY    63  48  59 N8        29.90S
$$


...KEY TO REMARKS...
VSB - VISIBILITY IN MILES
WCI - WIND CHILL INDEX
HX  - HEAT INDEX





USA.gov is the U.S. government's official web portal to all federal, state and local government web resources and services.